Regional Weather Roundup
Issued by NWS

Home | Current Version | Previous Version | Text Only | Print | Product List | Glossary On
Versions: 1 2 3 4 5 6 7 8 9 10 11 12 13 14 15 16 17 18 19 20 21 22 23 24 25 26 27 28 29 30 31 32 33 34 35 36 37 38 39 40 41 42 43 44 45 46 47 48 49 50
000
ASUS43 KDTX 011410
RWRMI
MICHIGAN HOURLY REGIONAL WEATHER ROUNDUP
NATIONAL WEATHER SERVICE DETROIT/PONTIAC MI
1000 AM EDT WED OCT 01 2014

NOTE: "FAIR" INDICATES FEW OR NO CLOUDS BELOW 12,000 FEET WITH NO
SIGNIFICANT WEATHER AND/OR OBSTRUCTION TO VISIBILITY.

MIZ047>049-052>055-059>063-066>070-074>076-081>083-011500-
SOUTHEAST LOWER MICHIGAN

CITY           SKY/WX    TMP DP  RH WIND       PRES   REMARKS
ADRIAN         SUNNY     56  49  77 CALM      30.07R
ALMA           FOG       53  52  97 CALM      30.07R VSB 1/4
ANN ARBOR      SUNNY     58  48  69 CALM      30.06R
BAD AXE        CLOUDY    59  59 100 CALM      30.07S FOG
DETROIT CITY   CLOUDY    59  52  77 CALM      30.09R
DETROIT        MOSUNNY   57  50  77 CALM      30.07R
FLINT          CLOUDY    57  54  89 SE6       30.07S
GROSSE ILE     CLOUDY    57  52  82 N3        30.06R
HILLSDALE      SUNNY     55  50  82 CALM      30.06R
HOWELL         LGT RAIN  53  53 100 S5        30.07R

CITY           SKY/WX    TMP DP  RH WIND       PRES   REMARKS
JACKSON        CLOUDY    52  50  93 CALM      30.07R
LAMBERTVILLE   SUNNY     55  52  88 CALM      30.07R
LANSING        CLOUDY    52  50  93 CALM      30.07S FOG
LAPEER         NOT AVBL
MASON          CLOUDY    51  51  99 CALM      30.07R FOG
MONROE         SUNNY     57  54  88 N3        30.05R
MT. CLEMENS    PTSUNNY   58  58  99 NW5       30.05R FOG
PONTIAC        PTSUNNY   56  51  84 SE5       30.07R
PORT HOPE        N/A     60  58  92 CALM      30.06R
PORT HURON     CLOUDY    55  55 100 CALM      30.07R FOG
TRI CITIES     FOG       57  55  93 CALM      30.07S VSB 1/4
YPSILANTI      MOSUNNY   62  52  69 CALM      30.08R
$$
MIZ043>046-050>051-056>058-064>065-071>073-077>080-011500-
SOUTHWEST LOWER MICHIGAN

CITY           SKY/WX    TMP DP  RH WIND       PRES   REMARKS
BATTLE CREEK   CLOUDY    52  46  80 S6        30.08R
BENTON HARBOR  CLOUDY    54  48  80 E5        30.05R
BIG RAPIDS     FOG       52  52 100 SE3       30.06R VSB 1/2
COLDWATER      SUNNY     56  49  75 CALM      30.06R
HOLLAND        CLOUDY    55  49  80 S8        30.07R
GRAND RAPIDS   CLOUDY    54  52  93 E6        30.06S
KALAMAZOO      CLOUDY    54  47  77 VRB3      30.07R
MARSHALL       CLOUDY    53  48  82 SW3       30.06R
MUSKEGON       CLOUDY    55  49  80 E7        30.06R
$$
MIZ016>042-011500-
NORTHERN LOWER MICHIGAN

CITY           SKY/WX    TMP DP  RH WIND       PRES   REMARKS
ALPENA         FOG       54  54 100 NE5       30.09R VSB 1
BEAVER ISLAND  CLOUDY    55  53  93 E3        30.07S
BELLAIRE       CLOUDY    55  51  87 E3        30.06S
CADILLAC       CLOUDY    52  52 100 E6        30.05R FOG
CHARLEVOIX     CLOUDY    55  53  95 SE8       30.09R
FRANKFORT      CLOUDY    54  49  85 CALM      30.06R
GAYLORD        FOG       50  50 100 E3        30.08S VSB 1/2
GRAYLING       FOG       54  54 100 E6        30.08S VSB 3/4
HARBOR SPRINGS CLOUDY    55  51  88 E9G18     30.07S
HOUGHTON LAKE  CLOUDY    53  52  96 E7        30.08R FOG
OSCODA         CLOUDY    55  55 100 NE6       30.07R FOG
PELLSTON       CLOUDY    54  52  93 SE7       30.08S
TRAVERSE CITY  CLOUDY    54  49  83 CALM      30.06R
$$
MIZ007>008-015-011500-
EASTERN UPPER MICHIGAN

CITY           SKY/WX    TMP DP  RH WIND       PRES   REMARKS
MACKINAC ISLAN CLOUDY    54  53  97 E10       30.07F
NEWBERRY       CLOUDY    52  52  99 S9        30.07R FOG
S. S. MARIE    CLOUDY    52  51  97 SE3       30.10S FOG
$$
MIZ004>006-011>014-085-011500-
CENTRAL UPPER MICHIGAN

CITY           SKY/WX    TMP DP  RH WIND       PRES   REMARKS
MANISTIQUE     CLOUDY    55  52  89 S9        30.06R
SAWYER-GWINN   CLOUDY    50  48  93 S10       30.02R FOG
$$
MIZ001>003-009>011-084-011500-
WESTERN UPPER MICHIGAN

CITY           SKY/WX    TMP DP  RH WIND       PRES   REMARKS
IRON MOUNTAIN  CLOUDY    49  47  93 S8        30.01R FOG
HOUGHTON       CLOUDY    51  45  79 S14       29.95F
$$

ABBREVIATIONS USED IN REMARKS
   TC - TEMPERATURE IN CELSIUS
  WCI - WIND CHILL INDEX
   HX - HEAT INDEX
  VSB - VISIBILITY




USA.gov is the U.S. government's official web portal to all federal, state and local government web resources and services.